7 * 24
多渠道服务支持
STARLINK-32796 是 SpaceX Starlink 卫星互联网项目中的一颗低轨卫星,属于第三代 Starlink 卫星(v1.5 或 v2 构型)。该卫星由猎鹰 9 号火箭发射入轨,旨在为全球用户提供高速、低延迟的宽带互联网服务。它运行在约 550 公里的轨道高度,配备先进通信设备和星间激光链路,提升网络覆盖与性能。Starlink 项目致力于构建全球卫星互联网,尤其服务于偏远地区。
美国
(US)
| 数据来源 | 国际轨道数据 |
| 星历时间: | 2025-11-06T20:19:50+0800 1天前 查看轨道信息 |
| 半长轴: | 6861.093km |
| 偏心率: | 0.0001649 |
| 轨道倾角: | 42.999° |
| 近地点辐角 | 258.357° |
| 升交点赤经 | 129.636° |
| 平近点角 | 101.710° |
| 近地点: | 481.826km |
| 远地点: | 484.09km |
| 周期: | 94.265分钟 |
| 每日圈数: | 15.276114 |